User: anonymous   Login
Location: Brookview Estates
(36.0476°N, 86.6931°W)
Time: 20:41:08
(UTC+00:00)
Language:

Cosmos 1953 - Orbit

View from above orbital plane
View from above orbital plane
View from above satellite
View from above satellite

Ground track
Ground track

The orbit data is extracted from the following two-line orbital elements,

1 19210U 88050A   20184.86196483 +.00000923 +00000-0 +61272-4 0  9990
2 19210 082.5164 034.8741 0014731 067.1476 293.1305 15.05985766723989
Epoch (UTC): 02 July 2020 20:41:13
Eccentricity: 0.0014731
inclination: 82.5164°
perigee height: 538 km
apogee height: 558 km
right ascension of ascending node: 34.8741°
argument of perigee: 67.1476°
revolutions per day: 15.05985766
mean anomaly at epoch: 293.1305°
orbit number at epoch: 72398

The dashed part of the orbit path shows where the satellite is in the earth's shadow,  

DLR